Location: Wiesbaden
(50.0830°N, 8.2500°E)
Time: 06:02:18
(UTC+02:00)

ISS - Pass Details

Date: 26 March 2020
Orbit: 417 x 423 km, 51.6° (Epoch: 29 March)

Event Time Altitude Azimuth Distance (km) Brightness Sun altitude
Rises 21:27:25 0° 283° (WNW) 2,362 1.1 -24.1°
Reaches altitude 10° 21:29:31 10° 285° (WNW) 1,498 -0.1 -24.3°
Enters shadow 21:31:34 34° 290° (WNW) 706 -2.1 -24.6°
